Time,TemperatureF,DewpointF,PressureIn,WindDirection,WindDirectionDegrees,WindSpeedMPH,WindSpeedGustMPH,Humidity,HourlyPrecipIn,Conditions,Clouds,dailyrainin,SoftwareType,DateUTC
2013-04-07 00:00:00,48.3,33.6,29.64,SSW,197,1.7,7.7,56,0.00,,,0.00,SomeHackedPerlScript,2013-04-07 04:00:00,
2013-04-07 00:05:00,48.4,33.6,29.64,SSE,153,0.9,5.5,56,0.00,,,0.00,SomeHackedPerlScript,2013-04-07 04:05:00,
2013-04-07 00:10:00,48.5,33.8,29.63,South,182,3.9,8.5,56,0.00,,,0.00,SomeHackedPerlScript,2013-04-07 04:10:00,
2013-04-07 00:15:00,49.0,34.0,29.63,South,185,3.1,7.0,56,0.00,,,0.00,SomeHackedPerlScript,2013-04-07 04:15:00,
2013-04-07 00:20:00,49.4,34.2,29.63,South,177,5.6,8.7,55,0.00,,,0.00,SomeHackedPerlScript,2013-04-07 04:20:00,
2013-04-07 00:25:00,50.3,35.2,29.62,South,178,3.7,11.3,56,0.00,,,0.00,SomeHackedPerlScript,2013-04-07 04:25:00,
2013-04-07 00:30:00,51.4,36.5,29.62,South,190,3.2,7.3,56,0.00,,,0.00,SomeHackedPerlScript,2013-04-07 04:30:00,
2013-04-07 00:35:00,52.4,37.0,29.62,SSW,196,1.8,9.4,55,0.00,,,0.00,SomeHackedPerlScript,2013-04-07 04:35:00,
2013-04-07 00:40:00,53.4,37.4,29.61,SE,141,1.3,12.8,54,0.00,,,0.00,SomeHackedPerlScript,2013-04-07 04:40:00,
2013-04-07 00:45:00,53.6,37.7,29.61,South,182,5.2,7.8,54,0.00,,,0.00,SomeHackedPerlScript,2013-04-07 04:45:00,
2013-04-07 00:50:00,53.6,38.2,29.60,South,184,0.9,10.0,55,0.00,,,0.00,SomeHackedPerlScript,2013-04-07 04:50:00,
2013-04-07 00:55:00,53.5,39.0,29.60,SSW,194,0.0,8.2,57,0.00,,,0.00,SomeHackedPerlScript,2013-04-07 04:55:00,
2013-04-07 01:00:00,53.2,40.5,29.59,South,190,3.0,5.5,62,0.00,,,0.00,SomeHackedPerlScript,2013-04-07 05:00:00,
2013-04-07 01:05:00,52.7,41.1,29.58,South,184,1.1,5.6,64,0.00,,,0.00,SomeHackedPerlScript,2013-04-07 05:05:00,
2013-04-07 01:10:00,52.1,40.9,29.58,South,179,2.7,6.7,65,0.00,,,0.00,SomeHackedPerlScript,2013-04-07 05:10:00,
2013-04-07 01:15:00,51.9,40.6,29.58,South,184,4.1,8.4,65,0.00,,,0.00,SomeHackedPerlScript,2013-04-07 05:15:00,
2013-04-07 01:20:00,51.7,40.6,29.57,South,181,2.8,6.5,65,0.00,,,0.00,SomeHackedPerlScript,2013-04-07 05:20:00,
2013-04-07 01:25:00,51.5,40.2,29.57,SSW,197,4.3,5.8,65,0.00,,,0.00,SomeHackedPerlScript,2013-04-07 05:25:00,
2013-04-07 01:30:00,51.6,40.2,29.57,SSW,207,5.7,9.4,64,0.00,,,0.00,SomeHackedPerlScript,2013-04-07 05:30:00,
2013-04-07 01:35:00,51.8,39.1,29.57,South,177,8.9,9.7,61,0.00,,,0.00,SomeHackedPerlScript,2013-04-07 05:35:00,
2013-04-07 01:40:00,52.1,39.4,29.57,SSW,199,0.4,11.5,61,0.00,,,0.00,SomeHackedPerlScript,2013-04-07 05:40:00,
2013-04-07 01:45:00,52.3,39.2,29.57,SSE,156,0.0,10.4,60,0.00,,,0.00,SomeHackedPerlScript,2013-04-07 05:45:00,
2013-04-07 01:50:00,52.6,39.0,29.56,South,171,3.6,6.6,59,0.00,,,0.00,SomeHackedPerlScript,2013-04-07 05:50:00,
2013-04-07 01:55:00,52.8,39.7,29.55,SSW,206,3.8,8.7,61,0.00,,,0.00,SomeHackedPerlScript,2013-04-07 05:55:00,
2013-04-07 02:00:00,52.4,40.0,29.56,South,184,1.3,9.6,62,0.00,,,0.00,SomeHackedPerlScript,2013-04-07 06:00:00,
2013-04-07 02:05:00,52.2,40.5,29.55,South,188,2.5,11.2,64,0.00,,,0.00,SomeHackedPerlScript,2013-04-07 06:05:00,
2013-04-07 02:10:00,51.9,40.5,29.55,South,175,0.0,8.4,64,0.00,,,0.00,SomeHackedPerlScript,2013-04-07 06:10:00,
2013-04-07 02:15:00,51.6,40.0,29.54,SSE,163,6.7,6.7,64,0.00,,,0.00,SomeHackedPerlScript,2013-04-07 06:15:00,
2013-04-07 02:20:00,51.7,39.8,29.54,SSE,166,4.2,7.7,63,0.00,,,0.00,SomeHackedPerlScript,2013-04-07 06:20:00,
2013-04-07 02:25:00,51.7,40.0,29.54,SSE,151,0.0,7.0,64,0.00,,,0.00,SomeHackedPerlScript,2013-04-07 06:25:00,
2013-04-07 02:30:00,51.7,40.1,29.53,SSE,156,0.0,5.6,64,0.00,,,0.00,SomeHackedPerlScript,2013-04-07 06:30:00,
2013-04-07 02:35:00,51.7,40.1,29.53,SSW,213,1.4,3.6,64,0.00,,,0.00,SomeHackedPerlScript,2013-04-07 06:35:00,
2013-04-07 02:40:00,51.4,39.9,29.52,SE,124,0.0,3.0,64,0.00,,,0.00,SomeHackedPerlScript,2013-04-07 06:40:00,
2013-04-07 02:45:00,51.3,39.4,29.52,South,175,2.2,4.8,63,0.00,,,0.00,SomeHackedPerlScript,2013-04-07 06:45:00,
2013-04-07 02:50:00,51.3,39.5,29.52,South,169,0.0,5.3,63,0.00,,,0.00,SomeHackedPerlScript,2013-04-07 06:50:00,
2013-04-07 02:55:00,51.3,39.0,29.51,SE,139,0.0,2.2,62,0.00,,,0.00,SomeHackedPerlScript,2013-04-07 06:55:00,
2013-04-07 03:00:00,51.4,38.8,29.51,SSW,199,3.3,7.6,62,0.00,,,0.00,SomeHackedPerlScript,2013-04-07 07:00:00,
2013-04-07 03:05:00,51.8,39.0,29.51,SSW,208,1.4,7.1,61,0.00,,,0.00,SomeHackedPerlScript,2013-04-07 07:05:00,
2013-04-07 03:10:00,51.9,39.0,29.50,South,179,4.0,5.4,61,0.00,,,0.00,SomeHackedPerlScript,2013-04-07 07:10:00,
2013-04-07 03:15:00,51.9,39.2,29.50,South,180,0.0,6.4,61,0.00,,,0.00,SomeHackedPerlScript,2013-04-07 07:15:00,
2013-04-07 03:20:00,52.0,39.4,29.50,SSW,208,0.0,6.6,62,0.00,,,0.00,SomeHackedPerlScript,2013-04-07 07:20:00,
2013-04-07 03:25:00,52.1,39.8,29.50,South,173,0.0,5.3,62,0.00,,,0.00,SomeHackedPerlScript,2013-04-07 07:25:00,
2013-04-07 03:30:00,52.0,40.0,29.50,SE,124,0.0,3.8,63,0.00,,,0.00,SomeHackedPerlScript,2013-04-07 07:30:00,
2013-04-07 03:35:00,52.1,40.6,29.49,SSW,194,3.2,7.2,64,0.00,,,0.00,SomeHackedPerlScript,2013-04-07 07:35:00,
2013-04-07 03:40:00,52.4,40.8,29.50,SW,221,0.0,4.5,64,0.00,,,0.00,SomeHackedPerlScript,2013-04-07 07:40:00,
2013-04-07 03:45:00,53.0,41.5,29.50,SSW,211,0.0,6.8,64,0.00,,,0.00,SomeHackedPerlScript,2013-04-07 07:45:00,
2013-04-07 03:50:00,53.2,42.0,29.50,SW,231,4.2,5.8,65,0.00,,,0.00,SomeHackedPerlScript,2013-04-07 07:50:00,
2013-04-07 03:55:00,53.6,42.5,29.50,NW,319,9.7,12.2,65,0.00,,,0.00,SomeHackedPerlScript,2013-04-07 07:55:00,
2013-04-07 04:00:00,54.4,43.6,29.50,WSW,254,4.3,13.8,66,0.00,,,0.00,SomeHackedPerlScript,2013-04-07 08:00:00,
2013-04-07 04:06:00,54.7,44.6,29.50,West,266,6.1,19.9,68,0.00,,,0.00,SomeHackedPerlScript,2013-04-07 08:06:00,
2013-04-07 04:10:00,54.3,45.5,29.50,SW,221,7.9,19.8,72,0.00,,,0.00,SomeHackedPerlScript,2013-04-07 08:10:00,
2013-04-07 04:15:00,53.9,46.2,29.50,WSW,248,8.8,18.8,75,0.00,,,0.00,SomeHackedPerlScript,2013-04-07 08:15:00,
2013-04-07 04:20:00,53.6,47.2,29.50,SW,220,3.7,25.9,78,0.00,,,0.00,SomeHackedPerlScript,2013-04-07 08:20:00,
2013-04-07 04:25:00,53.1,47.9,29.49,WSW,245,6.3,15.6,82,0.00,,,0.00,SomeHackedPerlScript,2013-04-07 08:25:00,
2013-04-07 04:30:00,52.7,48.4,29.49,WSW,240,5.7,13.2,85,0.00,,,0.00,SomeHackedPerlScript,2013-04-07 08:30:00,
2013-04-07 04:35:00,52.3,48.8,29.49,SW,224,5.3,13.0,88,0.00,,,0.00,SomeHackedPerlScript,2013-04-07 08:35:00,
2013-04-07 04:40:00,52.0,49.0,29.49,SSW,203,5.1,12.5,89,0.00,,,0.00,SomeHackedPerlScript,2013-04-07 08:40:00,
2013-04-07 04:46:00,51.7,49.1,29.48,SSW,209,2.1,18.6,90,0.00,,,0.00,SomeHackedPerlScript,2013-04-07 08:46:00,
2013-04-07 04:50:00,51.7,49.2,29.48,SSW,200,0.0,10.8,91,0.00,,,0.00,SomeHackedPerlScript,2013-04-07 08:50:00,
2013-04-07 04:55:00,51.7,49.2,29.48,SW,231,3.5,7.3,91,0.00,,,0.00,SomeHackedPerlScript,2013-04-07 08:55:00,
2013-04-07 05:00:00,51.6,49.2,29.48,South,178,5.0,8.9,91,0.00,,,0.00,SomeHackedPerlScript,2013-04-07 09:00:00,
2013-04-07 05:05:00,51.6,49.1,29.47,SSW,213,3.0,10.0,91,0.00,,,0.00,SomeHackedPerlScript,2013-04-07 09:05:00,
2013-04-07 05:11:00,51.8,49.0,29.47,West,265,3.5,10.1,90,0.00,,,0.00,SomeHackedPerlScript,2013-04-07 09:11:00,
2013-04-07 05:16:00,51.9,49.2,29.47,WSW,256,3.7,16.4,90,0.00,,,0.00,SomeHackedPerlScript,2013-04-07 09:16:00,
2013-04-07 05:21:00,51.9,49.1,29.47,SW,219,8.8,14.4,90,0.00,,,0.00,SomeHackedPerlScript,2013-04-07 09:21:00,
2013-04-07 05:26:00,52.0,49.1,29.48,West,259,10.4,14.4,89,0.00,,,0.00,SomeHackedPerlScript,2013-04-07 09:26:00,
2013-04-07 05:31:00,52.0,49.1,29.48,West,277,7.6,19.4,89,0.00,,,0.00,SomeHackedPerlScript,2013-04-07 09:31:00,
2013-04-07 05:36:00,52.1,49.3,29.48,West,266,7.4,16.6,90,0.00,,,0.00,SomeHackedPerlScript,2013-04-07 09:36:00,
2013-04-07 05:42:00,52.0,49.4,29.49,West,260,6.9,13.4,90,0.00,,,0.00,SomeHackedPerlScript,2013-04-07 09:42:00,
2013-04-07 05:47:00,51.8,49.4,29.49,SW,223,5.4,19.2,91,0.00,,,0.00,SomeHackedPerlScript,2013-04-07 09:47:00,
2013-04-07 05:52:00,51.9,49.5,29.49,WNW,291,7.0,17.1,91,0.00,,,0.00,SomeHackedPerlScript,2013-04-07 09:52:00,
2013-04-07 05:57:00,51.6,49.2,29.49,WSW,245,2.9,14.9,91,0.00,,,0.00,SomeHackedPerlScript,2013-04-07 09:57:00,
2013-04-07 06:02:00,51.6,49.2,29.50,WSW,248,3.2,21.6,91,0.00,,,0.00,SomeHackedPerlScript,2013-04-07 10:02:00,
2013-04-07 06:07:00,51.3,48.8,29.50,WSW,241,4.5,18.5,91,0.00,,,0.00,SomeHackedPerlScript,2013-04-07 10:07:00,
2013-04-07 06:12:00,51.1,48.5,29.50,WSW,254,10.1,16.6,90,0.00,,,0.00,SomeHackedPerlScript,2013-04-07 10:12:00,
2013-04-07 06:17:00,51.0,48.3,29.50,West,275,6.5,17.2,90,0.00,,,0.00,SomeHackedPerlScript,2013-04-07 10:17:00,
2013-04-07 06:22:00,50.8,48.0,29.51,West,270,5.2,17.9,89,0.00,,,0.00,SomeHackedPerlScript,2013-04-07 10:22:00,
2013-04-07 06:27:00,50.6,47.7,29.51,WSW,242,7.7,18.8,89,0.00,,,0.00,SomeHackedPerlScript,2013-04-07 10:27:00,
2013-04-07 06:32:00,50.5,47.5,29.51,West,279,7.9,14.1,89,0.00,,,0.00,SomeHackedPerlScript,2013-04-07 10:32:00,
2013-04-07 06:37:00,50.4,47.4,29.52,SW,225,6.2,16.5,89,0.00,,,0.00,SomeHackedPerlScript,2013-04-07 10:37:00,
2013-04-07 06:42:00,50.2,47.2,29.52,West,278,4.9,14.9,89,0.00,,,0.00,SomeHackedPerlScript,2013-04-07 10:42:00,
2013-04-07 06:47:00,49.6,46.0,29.52,WNW,295,6.9,26.4,87,0.00,,,0.00,SomeHackedPerlScript,2013-04-07 10:47:00,
2013-04-07 06:52:00,49.0,44.3,29.53,WNW,302,13.2,26.7,83,0.00,,,0.00,SomeHackedPerlScript,2013-04-07 10:52:00,
2013-04-07 06:57:00,48.7,43.9,29.53,West,261,9.3,22.2,83,0.00,,,0.00,SomeHackedPerlScript,2013-04-07 10:57:00,
2013-04-07 07:02:00,48.4,43.6,29.54,WNW,296,9.2,15.4,83,0.00,,,0.00,SomeHackedPerlScript,2013-04-07 11:02:00,
2013-04-07 07:07:00,48.0,43.1,29.54,NW,306,15.6,15.6,82,0.00,,,0.00,SomeHackedPerlScript,2013-04-07 11:07:00,
2013-04-07 07:12:00,47.4,42.7,29.55,West,265,12.0,21.1,83,0.00,,,0.00,SomeHackedPerlScript,2013-04-07 11:12:00,
2013-04-07 07:17:00,46.9,42.5,29.55,SSW,210,14.1,19.4,84,0.00,,,0.00,SomeHackedPerlScript,2013-04-07 11:17:00,
2013-04-07 07:22:00,46.4,42.3,29.56,WSW,255,4.5,20.1,85,0.00,,,0.00,SomeHackedPerlScript,2013-04-07 11:22:00,
2013-04-07 07:27:00,46.1,42.3,29.57,WSW,251,5.1,14.2,86,0.00,,,0.00,SomeHackedPerlScript,2013-04-07 11:27:00,
2013-04-07 07:32:00,45.8,42.0,29.58,WNW,295,14.3,19.3,86,0.00,,,0.00,SomeHackedPerlScript,2013-04-07 11:32:00,
2013-04-07 07:37:00,45.6,41.5,29.58,NW,305,5.9,22.2,85,0.00,,,0.00,SomeHackedPerlScript,2013-04-07 11:37:00,
2013-04-07 07:42:00,45.5,41.5,29.59,NW,309,10.4,19.8,85,0.00,,,0.00,SomeHackedPerlScript,2013-04-07 11:42:00,
2013-04-07 07:47:00,45.2,41.2,29.59,WSW,248,5.1,15.5,85,0.00,,,0.00,SomeHackedPerlScript,2013-04-07 11:47:00,
2013-04-07 07:52:00,45.1,40.8,29.60,West,260,6.5,18.7,84,0.00,,,0.00,SomeHackedPerlScript,2013-04-07 11:52:00,
2013-04-07 07:57:00,44.8,40.7,29.61,WSW,257,6.2,19.6,85,0.00,,,0.00,SomeHackedPerlScript,2013-04-07 11:57:00,
2013-04-07 08:02:00,44.9,40.8,29.61,West,268,7.4,17.2,85,0.00,,,0.00,SomeHackedPerlScript,2013-04-07 12:02:00,
2013-04-07 08:07:00,44.5,40.2,29.62,West,262,9.6,20.4,84,0.00,,,0.00,SomeHackedPerlScript,2013-04-07 12:07:00,
2013-04-07 08:12:00,44.6,40.4,29.63,WNW,299,2.6,15.7,85,0.00,,,0.00,SomeHackedPerlScript,2013-04-07 12:12:00,
2013-04-07 08:17:00,44.3,40.1,29.63,West,280,4.4,17.9,85,0.00,,,0.00,SomeHackedPerlScript,2013-04-07 12:17:00,
2013-04-07 08:22:00,44.1,39.7,29.64,West,279,11.8,17.1,84,0.00,,,0.00,SomeHackedPerlScript,2013-04-07 12:22:00,
2013-04-07 08:27:00,43.6,39.2,29.64,WNW,283,10.7,24.1,84,0.00,,,0.00,SomeHackedPerlScript,2013-04-07 12:27:00,
2013-04-07 08:32:00,43.4,39.4,29.65,WNW,295,11.4,17.4,85,0.00,,,0.00,SomeHackedPerlScript,2013-04-07 12:32:00,
2013-04-07 08:37:00,43.1,39.3,29.65,West,279,7.3,19.8,86,0.00,,,0.00,SomeHackedPerlScript,2013-04-07 12:37:00,
2013-04-07 08:42:00,42.9,39.4,29.65,WNW,282,1.9,16.7,87,0.00,,,0.00,SomeHackedPerlScript,2013-04-07 12:42:00,
2013-04-07 08:47:00,42.5,38.9,29.66,WNW,302,9.2,22.9,87,0.00,,,0.00,SomeHackedPerlScript,2013-04-07 12:47:00,
2013-04-07 08:52:00,42.3,38.6,29.67,WNW,296,8.5,22.4,86,0.00,,,0.00,SomeHackedPerlScript,2013-04-07 12:52:00,
2013-04-07 08:57:00,42.1,38.5,29.67,WNW,288,19.0,19.0,86,0.00,,,0.00,SomeHackedPerlScript,2013-04-07 12:57:00,
2013-04-07 09:02:00,41.9,38.4,29.68,WNW,296,6.2,21.6,87,0.00,,,0.00,SomeHackedPerlScript,2013-04-07 13:02:00,
2013-04-07 09:07:00,41.9,38.3,29.68,WNW,286,7.0,16.9,87,0.00,,,0.00,SomeHackedPerlScript,2013-04-07 13:07:00,
2013-04-07 09:12:00,41.8,38.2,29.68,WSW,244,3.6,17.4,87,0.00,,,0.00,SomeHackedPerlScript,2013-04-07 13:12:00,
2013-04-07 09:17:00,41.8,38.2,29.68,NW,305,6.0,15.2,87,0.00,,,0.00,SomeHackedPerlScript,2013-04-07 13:17:00,
2013-04-07 09:22:00,41.8,38.2,29.69,West,272,5.5,16.9,86,0.00,,,0.00,SomeHackedPerlScript,2013-04-07 13:22:00,
2013-04-07 09:27:00,41.7,37.9,29.69,West,269,8.4,14.9,86,0.00,,,0.00,SomeHackedPerlScript,2013-04-07 13:27:00,
2013-04-07 09:32:00,41.7,38.1,29.69,WSW,244,6.2,19.7,86,0.00,,,0.00,SomeHackedPerlScript,2013-04-07 13:32:00,
2013-04-07 09:37:00,41.8,38.2,29.69,WSW,250,2.5,13.0,87,0.00,,,0.00,SomeHackedPerlScript,2013-04-07 13:37:00,
2013-04-07 09:42:00,41.8,38.3,29.70,WNW,299,6.5,15.4,87,0.00,,,0.00,SomeHackedPerlScript,2013-04-07 13:42:00,
2013-04-07 09:47:00,41.9,38.5,29.70,WNW,295,4.1,14.4,87,0.00,,,0.00,SomeHackedPerlScript,2013-04-07 13:47:00,
2013-04-07 09:52:00,41.8,38.5,29.71,WNW,294,8.6,12.9,88,0.00,,,0.00,SomeHackedPerlScript,2013-04-07 13:52:00,
2013-04-07 09:57:00,41.8,38.4,29.71,West,274,6.6,10.6,87,0.00,,,0.00,SomeHackedPerlScript,2013-04-07 13:57:00,
2013-04-07 10:02:00,41.9,38.7,29.71,WSW,251,3.2,15.3,88,0.00,,,0.00,SomeHackedPerlScript,2013-04-07 14:02:00,
2013-04-07 10:07:00,41.8,38.4,29.72,West,259,5.2,19.0,87,0.00,,,0.00,SomeHackedPerlScript,2013-04-07 14:07:00,
2013-04-07 10:12:00,41.8,38.1,29.72,NNW,333,8.6,15.4,86,0.00,,,0.00,SomeHackedPerlScript,2013-04-07 14:12:00,
2013-04-07 10:17:00,41.6,37.8,29.72,West,270,8.4,19.0,86,0.00,,,0.00,SomeHackedPerlScript,2013-04-07 14:17:00,
2013-04-07 10:22:00,41.4,37.2,29.73,WNW,288,7.9,18.0,85,0.00,,,0.00,SomeHackedPerlScript,2013-04-07 14:22:00,
2013-04-07 10:27:00,41.3,37.3,29.73,West,281,10.8,17.2,85,0.00,,,0.00,SomeHackedPerlScript,2013-04-07 14:27:00,
2013-04-07 10:32:00,41.3,37.4,29.73,WNW,289,10.8,15.6,86,0.00,,,0.00,SomeHackedPerlScript,2013-04-07 14:32:00,
2013-04-07 10:37:00,41.3,37.5,29.73,WNW,290,6.9,19.5,86,0.00,,,0.00,SomeHackedPerlScript,2013-04-07 14:37:00,
2013-04-07 10:42:00,41.2,37.6,29.74,West,268,9.5,21.6,86,0.00,,,0.00,SomeHackedPerlScript,2013-04-07 14:42:00,
2013-04-07 10:47:00,41.2,37.5,29.74,WNW,290,14.3,17.7,86,0.00,,,0.00,SomeHackedPerlScript,2013-04-07 14:47:00,
2013-04-07 10:52:00,41.1,37.5,29.75,West,259,6.9,15.7,87,0.00,,,0.00,SomeHackedPerlScript,2013-04-07 14:52:00,
2013-04-07 10:57:00,41.1,37.4,29.75,WNW,295,5.6,15.3,86,0.00,,,0.00,SomeHackedPerlScript,2013-04-07 14:57:00,
2013-04-07 11:02:00,41.0,37.4,29.75,NNW,346,11.1,15.3,86,0.00,,,0.00,SomeHackedPerlScript,2013-04-07 15:02:00,
2013-04-07 11:07:00,40.9,36.7,29.76,WNW,295,12.8,18.0,84,0.00,,,0.00,SomeHackedPerlScript,2013-04-07 15:07:00,
2013-04-07 11:12:00,41.0,36.5,29.76,WNW,300,11.2,19.5,83,0.00,,,0.00,SomeHackedPerlScript,2013-04-07 15:12:00,
2013-04-07 11:17:00,41.1,36.5,29.76,NW,305,7.6,17.4,83,0.00,,,0.00,SomeHackedPerlScript,2013-04-07 15:17:00,
2013-04-07 11:22:00,41.2,36.5,29.77,NW,305,8.6,16.2,83,0.00,,,0.00,SomeHackedPerlScript,2013-04-07 15:22:00,
2013-04-07 11:27:00,41.2,36.7,29.77,WNW,300,6.4,14.7,83,0.00,,,0.00,SomeHackedPerlScript,2013-04-07 15:27:00,
2013-04-07 11:32:00,41.2,36.6,29.78,West,262,3.4,10.4,83,0.00,,,0.00,SomeHackedPerlScript,2013-04-07 15:32:00,
2013-04-07 11:37:00,41.3,36.7,29.78,WNW,295,6.0,14.0,83,0.00,,,0.00,SomeHackedPerlScript,2013-04-07 15:37:00,
2013-04-07 11:42:00,41.3,36.6,29.78,NW,323,7.3,8.7,83,0.00,,,0.00,SomeHackedPerlScript,2013-04-07 15:42:00,
2013-04-07 11:47:00,41.4,36.7,29.79,West,278,9.9,13.1,83,0.00,,,0.00,SomeHackedPerlScript,2013-04-07 15:47:00,
2013-04-07 11:52:00,41.3,36.1,29.79,West,270,7.5,14.6,81,0.00,,,0.00,SomeHackedPerlScript,2013-04-07 15:52:00,
2013-04-07 11:57:00,41.4,36.3,29.79,WNW,287,12.1,20.8,81,0.00,,,0.00,SomeHackedPerlScript,2013-04-07 15:57:00,
2013-04-07 12:02:00,41.3,35.9,29.80,West,271,8.8,15.1,80,0.00,,,0.00,SomeHackedPerlScript,2013-04-07 16:02:00,
2013-04-07 12:07:00,41.4,36.0,29.80,NW,310,8.1,21.6,80,0.00,,,0.00,SomeHackedPerlScript,2013-04-07 16:07:00,
2013-04-07 12:12:00,41.5,36.1,29.80,WNW,282,7.5,14.3,80,0.00,,,0.00,SomeHackedPerlScript,2013-04-07 16:12:00,
2013-04-07 12:17:00,41.6,35.9,29.81,WNW,303,7.9,18.2,80,0.00,,,0.00,SomeHackedPerlScript,2013-04-07 16:17:00,
2013-04-07 12:22:00,41.7,35.9,29.82,NNW,339,7.1,11.8,79,0.00,,,0.00,SomeHackedPerlScript,2013-04-07 16:22:00,
2013-04-07 12:27:00,41.4,35.5,29.82,NW,315,6.0,16.2,79,0.00,,,0.00,SomeHackedPerlScript,2013-04-07 16:27:00,
2013-04-07 12:33:00,41.6,35.9,29.82,West,269,6.9,15.9,80,0.00,,,0.00,SomeHackedPerlScript,2013-04-07 16:33:00,
2013-04-07 12:38:00,41.5,35.6,29.82,West,269,9.3,17.0,79,0.00,,,0.00,SomeHackedPerlScript,2013-04-07 16:38:00,
2013-04-07 12:43:00,41.6,35.6,29.82,WNW,288,6.9,16.9,79,0.00,,,0.00,SomeHackedPerlScript,2013-04-07 16:43:00,
2013-04-07 12:48:00,41.7,35.6,29.82,NW,306,6.4,13.5,78,0.00,,,0.00,SomeHackedPerlScript,2013-04-07 16:48:00,
2013-04-07 12:53:00,41.5,35.2,29.83,SW,220,8.2,13.8,78,0.00,,,0.00,SomeHackedPerlScript,2013-04-07 16:53:00,
2013-04-07 12:58:00,41.5,35.2,29.83,NW,311,9.9,16.9,78,0.00,,,0.00,SomeHackedPerlScript,2013-04-07 16:58:00,
2013-04-07 13:03:00,41.6,35.1,29.84,WSW,256,5.2,17.3,77,0.00,,,0.00,SomeHackedPerlScript,2013-04-07 17:03:00,
2013-04-07 13:08:00,41.6,35.2,29.84,WSW,253,8.6,16.1,77,0.00,,,0.00,SomeHackedPerlScript,2013-04-07 17:08:00,
2013-04-07 13:13:00,41.8,35.2,29.84,WNW,298,5.8,16.7,77,0.00,,,0.00,SomeHackedPerlScript,2013-04-07 17:13:00,
2013-04-07 13:18:00,41.8,35.1,29.84,West,273,8.4,16.5,76,0.00,,,0.00,SomeHackedPerlScript,2013-04-07 17:18:00,
2013-04-07 13:23:00,42.0,34.9,29.85,WNW,289,9.0,16.9,75,0.00,,,0.00,SomeHackedPerlScript,2013-04-07 17:23:00,
2013-04-07 13:28:00,42.0,34.8,29.85,WNW,284,5.0,15.9,75,0.00,,,0.00,SomeHackedPerlScript,2013-04-07 17:28:00,
2013-04-07 13:33:00,42.3,35.4,29.85,NW,325,7.8,15.4,76,0.00,,,0.00,SomeHackedPerlScript,2013-04-07 17:33:00,
2013-04-07 13:38:00,42.5,35.3,29.85,NNW,329,7.0,17.6,75,0.00,,,0.00,SomeHackedPerlScript,2013-04-07 17:38:00,
2013-04-07 13:43:00,42.7,34.7,29.85,West,278,5.6,13.1,73,0.00,,,0.00,SomeHackedPerlScript,2013-04-07 17:43:00,
2013-04-07 13:48:00,43.0,34.8,29.86,West,262,8.1,16.8,72,0.00,,,0.00,SomeHackedPerlScript,2013-04-07 17:48:00,
2013-04-07 13:53:00,43.3,34.9,29.85,WNW,292,7.8,18.3,72,0.00,,,0.00,SomeHackedPerlScript,2013-04-07 17:53:00,
2013-04-07 13:58:00,43.3,34.4,29.86,WNW,285,7.9,16.9,70,0.00,,,0.00,SomeHackedPerlScript,2013-04-07 17:58:00,
2013-04-07 14:03:00,43.1,34.3,29.86,West,281,10.2,17.5,71,0.00,,,0.00,SomeHackedPerlScript,2013-04-07 18:03:00,
2013-04-07 14:08:00,43.1,33.9,29.86,North,357,7.0,17.2,69,0.00,,,0.00,SomeHackedPerlScript,2013-04-07 18:08:00,
2013-04-07 14:13:00,43.1,33.9,29.87,NNW,331,14.7,16.0,69,0.00,,,0.00,SomeHackedPerlScript,2013-04-07 18:13:00,
2013-04-07 14:18:00,43.1,34.1,29.87,WSW,256,4.7,15.4,70,0.00,,,0.00,SomeHackedPerlScript,2013-04-07 18:18:00,
2013-04-07 14:23:00,43.0,33.5,29.87,West,268,4.7,17.7,69,0.00,,,0.00,SomeHackedPerlScript,2013-04-07 18:23:00,
2013-04-07 14:28:00,43.4,34.1,29.87,WNW,292,3.7,14.5,69,0.00,,,0.00,SomeHackedPerlScript,2013-04-07 18:28:00,
2013-04-07 14:33:00,43.6,33.6,29.88,WNW,294,10.8,14.3,67,0.00,,,0.00,SomeHackedPerlScript,2013-04-07 18:33:00,
2013-04-07 14:38:00,43.2,33.5,29.88,SSW,213,2.8,17.2,68,0.00,,,0.00,SomeHackedPerlScript,2013-04-07 18:38:00,
2013-04-07 14:43:00,43.2,33.9,29.88,NW,317,7.8,12.8,69,0.00,,,0.00,SomeHackedPerlScript,2013-04-07 18:43:00,
2013-04-07 14:48:00,42.7,33.3,29.88,WNW,297,6.9,14.1,69,0.00,,,0.00,SomeHackedPerlScript,2013-04-07 18:48:00,
2013-04-07 14:53:00,42.8,33.6,29.89,NW,317,2.3,16.1,69,0.00,,,0.00,SomeHackedPerlScript,2013-04-07 18:53:00,
2013-04-07 14:58:00,42.7,33.7,29.89,NW,316,8.1,15.1,70,0.00,,,0.00,SomeHackedPerlScript,2013-04-07 18:58:00,
2013-04-07 15:03:00,42.6,33.7,29.89,WNW,296,5.7,12.9,70,0.00,,,0.00,SomeHackedPerlScript,2013-04-07 19:03:00,
2013-04-07 15:08:00,42.5,33.6,29.89,NW,319,4.1,13.3,70,0.00,,,0.00,SomeHackedPerlScript,2013-04-07 19:08:00,
2013-04-07 15:13:00,42.5,33.8,29.89,WNW,302,7.9,11.4,71,0.00,,,0.00,SomeHackedPerlScript,2013-04-07 19:13:00,
2013-04-07 15:18:00,43.0,34.0,29.90,NNW,333,7.4,13.0,70,0.00,,,0.00,SomeHackedPerlScript,2013-04-07 19:18:00,
2013-04-07 15:23:00,43.4,33.8,29.90,West,272,3.9,11.8,68,0.00,,,0.00,SomeHackedPerlScript,2013-04-07 19:23:00,
2013-04-07 15:28:00,43.6,33.5,29.90,NW,305,5.3,13.6,67,0.00,,,0.00,SomeHackedPerlScript,2013-04-07 19:28:00,
2013-04-07 15:33:00,43.5,33.2,29.90,WNW,285,3.2,9.4,66,0.00,,,0.00,SomeHackedPerlScript,2013-04-07 19:33:00,
2013-04-07 15:38:00,43.4,33.4,29.90,West,269,8.1,11.2,67,0.00,,,0.00,SomeHackedPerlScript,2013-04-07 19:38:00,
2013-04-07 15:43:00,43.5,33.5,29.90,West,259,8.1,13.8,67,0.00,,,0.00,SomeHackedPerlScript,2013-04-07 19:43:00,
2013-04-07 15:48:00,43.3,33.2,29.90,NW,325,9.0,12.5,67,0.00,,,0.00,SomeHackedPerlScript,2013-04-07 19:48:00,
2013-04-07 15:53:00,43.3,33.2,29.91,NW,305,6.7,14.1,67,0.00,,,0.00,SomeHackedPerlScript,2013-04-07 19:53:00,
2013-04-07 15:58:00,42.9,33.0,29.91,NW,306,8.8,11.9,67,0.00,,,0.00,SomeHackedPerlScript,2013-04-07 19:58:00,
2013-04-07 16:03:00,43.0,33.4,29.91,NW,316,6.5,11.5,68,0.00,,,0.00,SomeHackedPerlScript,2013-04-07 20:03:00,
2013-04-07 16:08:00,42.9,33.6,29.91,NW,311,6.2,10.0,69,0.00,,,0.00,SomeHackedPerlScript,2013-04-07 20:08:00,
2013-04-07 16:13:00,42.8,33.6,29.91,WNW,285,9.0,13.1,69,0.00,,,0.00,SomeHackedPerlScript,2013-04-07 20:13:00,
2013-04-07 16:18:00,42.9,33.6,29.91,NNW,345,3.6,11.1,69,0.00,,,0.00,SomeHackedPerlScript,2013-04-07 20:18:00,
2013-04-07 16:23:00,43.1,33.6,29.91,NW,324,9.2,10.0,68,0.00,,,0.00,SomeHackedPerlScript,2013-04-07 20:23:00,
2013-04-07 16:28:00,43.2,33.5,29.91,WNW,283,9.1,10.9,68,0.00,,,0.00,SomeHackedPerlScript,2013-04-07 20:28:00,
2013-04-07 16:33:00,43.5,33.9,29.91,West,260,1.5,11.8,68,0.00,,,0.00,SomeHackedPerlScript,2013-04-07 20:33:00,
2013-04-07 16:38:00,43.7,33.6,29.91,SW,215,4.1,9.9,67,0.00,,,0.00,SomeHackedPerlScript,2013-04-07 20:38:00,
2013-04-07 16:43:00,43.9,33.6,29.92,WNW,285,6.8,12.1,66,0.00,,,0.00,SomeHackedPerlScript,2013-04-07 20:43:00,
2013-04-07 16:48:00,43.8,33.6,29.92,West,262,2.6,11.5,67,0.00,,,0.00,SomeHackedPerlScript,2013-04-07 20:48:00,
2013-04-07 16:53:00,43.6,33.3,29.92,North,350,6.2,9.9,66,0.00,,,0.00,SomeHackedPerlScript,2013-04-07 20:53:00,
2013-04-07 16:58:00,43.5,33.5,29.92,WSW,258,3.0,10.6,67,0.00,,,0.00,SomeHackedPerlScript,2013-04-07 20:58:00,
2013-04-07 17:03:00,43.4,33.4,29.93,NW,320,6.0,9.8,67,0.00,,,0.00,SomeHackedPerlScript,2013-04-07 21:03:00,
2013-04-07 17:08:00,43.4,33.3,29.93,NW,320,4.8,10.7,67,0.00,,,0.00,SomeHackedPerlScript,2013-04-07 21:08:00,
2013-04-07 17:13:00,43.3,33.5,29.93,WNW,296,4.5,8.2,68,0.00,,,0.00,SomeHackedPerlScript,2013-04-07 21:13:00,
2013-04-07 17:18:00,43.3,33.4,29.93,West,263,5.7,8.6,67,0.00,,,0.00,SomeHackedPerlScript,2013-04-07 21:18:00,
2013-04-07 17:23:00,43.3,33.3,29.93,NW,314,3.0,9.5,67,0.00,,,0.00,SomeHackedPerlScript,2013-04-07 21:23:00,
2013-04-07 17:28:00,43.5,33.2,29.93,NW,316,5.0,7.3,66,0.00,,,0.00,SomeHackedPerlScript,2013-04-07 21:28:00,
2013-04-07 17:33:00,43.4,33.1,29.93,West,276,0.0,9.9,66,0.00,,,0.00,SomeHackedPerlScript,2013-04-07 21:33:00,
2013-04-07 17:38:00,43.6,33.1,29.94,WNW,298,4.4,8.8,66,0.00,,,0.00,SomeHackedPerlScript,2013-04-07 21:38:00,
2013-04-07 17:43:00,43.5,33.2,29.94,WNW,282,2.8,10.6,66,0.00,,,0.00,SomeHackedPerlScript,2013-04-07 21:43:00,
2013-04-07 17:48:00,43.5,33.2,29.94,NW,310,1.6,10.5,66,0.00,,,0.00,SomeHackedPerlScript,2013-04-07 21:48:00,
2013-04-07 17:53:00,43.6,33.2,29.94,NNW,327,6.3,8.0,66,0.00,,,0.00,SomeHackedPerlScript,2013-04-07 21:53:00,
2013-04-07 17:58:00,43.6,33.0,29.95,WNW,291,9.1,11.7,65,0.00,,,0.00,SomeHackedPerlScript,2013-04-07 21:58:00,
2013-04-07 18:03:00,43.5,32.8,29.94,WNW,293,3.4,10.4,65,0.00,,,0.00,SomeHackedPerlScript,2013-04-07 22:03:00,
2013-04-07 18:08:00,43.5,32.9,29.94,West,265,2.9,9.4,66,0.00,,,0.00,SomeHackedPerlScript,2013-04-07 22:08:00,
2013-04-07 18:14:00,43.2,32.6,29.95,NNW,345,4.7,9.5,65,0.00,,,0.00,SomeHackedPerlScript,2013-04-07 22:14:00,
2013-04-07 18:19:00,43.3,32.8,29.96,NNW,327,6.0,7.3,66,0.00,,,0.00,SomeHackedPerlScript,2013-04-07 22:19:00,
2013-04-07 18:24:00,43.3,32.9,29.95,West,279,2.1,8.0,66,0.00,,,0.00,SomeHackedPerlScript,2013-04-07 22:24:00,
2013-04-07 18:29:00,43.3,32.6,29.95,NW,306,2.8,8.6,65,0.00,,,0.00,SomeHackedPerlScript,2013-04-07 22:29:00,
2013-04-07 18:34:00,43.3,32.6,29.95,NW,319,3.0,11.0,65,0.00,,,0.00,SomeHackedPerlScript,2013-04-07 22:34:00,
2013-04-07 18:39:00,43.4,32.8,29.95,WSW,242,0.0,8.1,66,0.00,,,0.00,SomeHackedPerlScript,2013-04-07 22:39:00,
2013-04-07 18:44:00,43.4,32.8,29.95,NNW,331,4.4,8.7,65,0.00,,,0.00,SomeHackedPerlScript,2013-04-07 22:44:00,
2013-04-07 18:49:00,43.4,32.5,29.95,SW,227,0.0,8.2,65,0.00,,,0.00,SomeHackedPerlScript,2013-04-07 22:49:00,
2013-04-07 18:54:00,43.1,32.3,29.95,NW,314,2.7,9.2,65,0.00,,,0.00,SomeHackedPerlScript,2013-04-07 22:54:00,
2013-04-07 18:59:00,43.1,32.6,29.94,SE,132,6.7,6.7,66,0.00,,,0.00,SomeHackedPerlScript,2013-04-07 22:59:00,
2013-04-07 19:04:00,43.0,32.4,29.95,NNW,344,1.9,10.1,65,0.00,,,0.00,SomeHackedPerlScript,2013-04-07 23:04:00,
2013-04-07 19:09:00,42.9,32.4,29.95,NW,304,4.1,6.9,66,0.00,,,0.00,SomeHackedPerlScript,2013-04-07 23:09:00,
2013-04-07 19:14:00,42.8,32.3,29.95,NW,316,0.0,8.7,66,0.00,,,0.00,SomeHackedPerlScript,2013-04-07 23:14:00,
2013-04-07 19:19:00,42.9,32.7,29.95,NW,316,0.0,7.1,67,0.00,,,0.00,SomeHackedPerlScript,2013-04-07 23:19:00,
2013-04-07 19:24:00,42.9,32.4,29.95,WSW,239,1.4,6.6,66,0.00,,,0.00,SomeHackedPerlScript,2013-04-07 23:24:00,
2013-04-07 19:29:00,42.8,32.5,29.95,WSW,239,0.0,7.8,66,0.00,,,0.00,SomeHackedPerlScript,2013-04-07 23:29:00,
2013-04-07 19:34:00,42.8,32.4,29.95,WSW,239,0.0,5.1,66,0.00,,,0.00,SomeHackedPerlScript,2013-04-07 23:34:00,
2013-04-07 19:39:00,42.7,32.5,29.96,WSW,239,0.0,0.0,67,0.00,,,0.00,SomeHackedPerlScript,2013-04-07 23:39:00,
2013-04-07 19:44:00,42.7,32.6,29.95,SW,235,0.0,1.3,67,0.00,,,0.00,SomeHackedPerlScript,2013-04-07 23:44:00,
2013-04-07 19:49:00,42.6,32.6,29.96,SW,235,0.0,0.0,67,0.00,,,0.00,SomeHackedPerlScript,2013-04-07 23:49:00,
2013-04-07 19:54:00,42.5,32.6,29.96,SW,235,0.0,0.0,67,0.00,,,0.00,SomeHackedPerlScript,2013-04-07 23:54:00,
2013-04-07 19:59:00,42.5,32.6,29.96,NNW,333,0.0,0.0,67,0.00,,,0.00,SomeHackedPerlScript,2013-04-07 23:59:00,
2013-04-07 20:04:00,42.5,32.7,29.96,NW,314,0.0,1.9,67,0.00,,,0.00,SomeHackedPerlScript,2013-04-08 00:04:00,
2013-04-07 20:09:00,42.5,32.7,29.96,NW,314,0.0,3.0,68,0.00,,,0.00,SomeHackedPerlScript,2013-04-08 00:09:00,
2013-04-07 20:14:00,42.5,32.8,29.96,NNW,331,0.0,0.0,68,0.00,,,0.00,SomeHackedPerlScript,2013-04-08 00:14:00,
2013-04-07 20:19:00,42.4,32.7,29.96,WNW,292,0.0,0.8,68,0.00,,,0.00,SomeHackedPerlScript,2013-04-08 00:19:00,
2013-04-07 20:24:00,42.3,32.6,29.96,SSW,201,0.0,1.4,68,0.00,,,0.00,SomeHackedPerlScript,2013-04-08 00:24:00,
2013-04-07 20:29:00,42.3,32.6,29.97,SW,215,0.0,1.9,68,0.00,,,0.00,SomeHackedPerlScript,2013-04-08 00:29:00,
2013-04-07 20:34:00,42.3,32.7,29.97,SW,215,0.0,0.0,68,0.00,,,0.00,SomeHackedPerlScript,2013-04-08 00:34:00,
2013-04-07 20:39:00,42.3,32.9,29.97,SW,215,0.0,0.0,69,0.00,,,0.00,SomeHackedPerlScript,2013-04-08 00:39:00,
2013-04-07 20:44:00,42.3,32.9,29.97,SW,215,0.0,0.0,69,0.00,,,0.00,SomeHackedPerlScript,2013-04-08 00:44:00,
2013-04-07 20:49:00,42.2,32.9,29.96,SW,215,0.0,0.0,69,0.00,,,0.00,SomeHackedPerlScript,2013-04-08 00:49:00,
2013-04-07 20:55:00,42.2,32.8,29.97,SW,215,0.0,0.0,69,0.00,,,0.00,SomeHackedPerlScript,2013-04-08 00:55:00,
2013-04-07 21:00:00,42.0,32.6,29.97,North,354,0.0,0.0,69,0.00,,,0.00,SomeHackedPerlScript,2013-04-08 01:00:00,
2013-04-07 21:05:00,41.9,32.5,29.97,North,351,0.0,2.8,69,0.00,,,0.00,SomeHackedPerlScript,2013-04-08 01:05:00,
2013-04-07 21:10:00,41.9,32.5,29.97,North,351,0.0,2.8,69,0.00,,,0.00,SomeHackedPerlScript,2013-04-08 01:10:00,
2013-04-07 21:15:00,41.8,32.5,29.97,North,351,0.0,0.0,69,0.00,,,0.00,SomeHackedPerlScript,2013-04-08 01:15:00,
2013-04-07 21:20:00,41.8,32.5,29.97,North,351,0.0,0.0,69,0.00,,,0.00,SomeHackedPerlScript,2013-04-08 01:20:00,
2013-04-07 21:25:00,41.7,32.4,29.97,North,351,0.0,0.0,69,0.00,,,0.00,SomeHackedPerlScript,2013-04-08 01:25:00,
2013-04-07 21:30:00,41.7,32.4,29.97,North,351,0.0,0.0,69,0.00,,,0.00,SomeHackedPerlScript,2013-04-08 01:30:00,
2013-04-07 21:35:00,41.6,32.6,29.97,North,351,0.0,0.0,70,0.00,,,0.00,SomeHackedPerlScript,2013-04-08 01:35:00,
2013-04-07 21:40:00,41.6,32.9,29.98,NNE,26,0.0,2.1,71,0.00,,,0.00,SomeHackedPerlScript,2013-04-08 01:40:00,
2013-04-07 21:45:00,41.4,32.8,29.98,NNE,26,0.0,3.1,71,0.00,,,0.00,SomeHackedPerlScript,2013-04-08 01:45:00,
2013-04-07 21:50:00,41.3,32.9,29.98,NNE,26,0.0,0.0,71,0.00,,,0.00,SomeHackedPerlScript,2013-04-08 01:50:00,
2013-04-07 21:55:00,41.1,32.8,29.98,NNE,26,0.0,0.0,72,0.00,,,0.00,SomeHackedPerlScript,2013-04-08 01:55:00,
2013-04-07 22:00:00,41.1,32.9,29.98,NNE,26,0.0,0.0,72,0.00,,,0.00,SomeHackedPerlScript,2013-04-08 02:00:00,
2013-04-07 22:05:00,41.0,32.9,29.99,NNE,26,0.0,0.0,72,0.00,,,0.00,SomeHackedPerlScript,2013-04-08 02:05:00,
2013-04-07 22:10:00,41.0,33.0,29.99,NNE,26,0.0,0.0,72,0.00,,,0.00,SomeHackedPerlScript,2013-04-08 02:10:00,
2013-04-07 22:15:00,40.8,32.8,29.99,NNE,23,2.1,0.0,72,0.00,,,0.00,SomeHackedPerlScript,2013-04-08 02:15:00,
2013-04-07 22:20:00,40.9,32.8,30.00,ENE,60,0.0,4.7,72,0.00,,,0.00,SomeHackedPerlScript,2013-04-08 02:20:00,
2013-04-07 22:25:00,40.9,32.9,30.00,ENE,60,0.0,2.9,72,0.00,,,0.00,SomeHackedPerlScript,2013-04-08 02:25:00,
2013-04-07 22:30:00,40.8,32.9,30.00,ENE,62,0.0,1.0,73,0.00,,,0.00,SomeHackedPerlScript,2013-04-08 02:30:00,
2013-04-07 22:35:00,40.7,32.7,30.01,NE,45,0.6,1.3,72,0.00,,,0.00,SomeHackedPerlScript,2013-04-08 02:35:00,
2013-04-07 22:40:00,40.7,32.7,30.00,NE,40,0.6,2.4,72,0.00,,,0.00,SomeHackedPerlScript,2013-04-08 02:40:00,
2013-04-07 22:45:00,40.7,32.7,30.00,NNE,32,0.0,2.6,73,0.00,,,0.00,SomeHackedPerlScript,2013-04-08 02:45:00,
2013-04-07 22:50:00,40.6,32.7,30.00,NNE,32,0.0,1.6,73,0.00,,,0.00,SomeHackedPerlScript,2013-04-08 02:50:00,
2013-04-07 22:55:00,40.3,32.6,29.99,NNE,32,0.0,0.0,73,0.00,,,0.00,SomeHackedPerlScript,2013-04-08 02:55:00,
2013-04-07 23:00:00,40.1,32.5,30.00,NNE,32,0.0,0.0,74,0.00,,,0.00,SomeHackedPerlScript,2013-04-08 03:00:00,
2013-04-07 23:05:00,39.9,32.5,29.99,NNE,32,0.0,0.0,74,0.00,,,0.00,SomeHackedPerlScript,2013-04-08 03:05:00,
2013-04-07 23:10:00,39.7,32.5,29.99,ENE,76,0.0,0.0,75,0.00,,,0.00,SomeHackedPerlScript,2013-04-08 03:10:00,
2013-04-07 23:15:00,39.6,32.6,29.99,ENE,76,0.0,2.3,75,0.00,,,0.00,SomeHackedPerlScript,2013-04-08 03:15:00,
2013-04-07 23:20:00,39.3,32.4,30.00,ENE,76,0.0,0.0,76,0.00,,,0.00,SomeHackedPerlScript,2013-04-08 03:20:00,
2013-04-07 23:25:00,39.0,32.3,29.99,ENE,76,0.0,0.0,76,0.00,,,0.00,SomeHackedPerlScript,2013-04-08 03:25:00,
2013-04-07 23:30:00,38.5,32.2,29.99,NE,47,0.0,0.0,77,0.00,,,0.00,SomeHackedPerlScript,2013-04-08 03:30:00,
2013-04-07 23:35:00,38.2,32.1,29.99,NE,47,0.0,1.4,78,0.00,,,0.00,SomeHackedPerlScript,2013-04-08 03:35:00,
2013-04-07 23:40:00,37.8,32.0,29.99,NE,47,0.0,0.0,79,0.00,,,0.00,SomeHackedPerlScript,2013-04-08 03:40:00,
2013-04-07 23:46:00,37.3,31.7,29.99,NE,47,0.0,0.0,80,0.00,,,0.00,SomeHackedPerlScript,2013-04-08 03:46:00,
2013-04-07 23:51:00,37.1,31.8,29.99,NE,52,0.0,0.0,80,0.00,,,0.00,SomeHackedPerlScript,2013-04-08 03:51:00,
2013-04-07 23:56:00,36.8,31.5,29.99,NE,52,0.0,1.3,81,0.00,,,0.00,SomeHackedPerlScript,2013-04-08 03:56:00,